Aviation Digital Data Service (ADDS)

Output produced by METARs form (0056 UTC 22 September 2017)
found at http://www.aviationweather.gov/adds/metars/
 
LFLB 220030Z AUTO 00000KT CAVOK 07/07 Q1021 NOSIG
TAF LFLB 212300Z 2200/2224 VRB02KT CAVOK
       
LFBZ 220030Z AUTO 20002KT 9999 FEW028 SCT036 BKN130 16/14 Q1021 TEMPO 4000 -RADZ BKN005
TAF LFBZ 212300Z 2200/2224 VRB03KT 9999 SCT010 BKN015 
     PROB40 
     TEMPO 2200/2206 4000 -RADZ BKN005 
     BECMG 2206/2208 SCT030 BKN060 
     PROB30 
     TEMPO 2206/2211 -SHRA BKN020 
     BECMG 2212/2214 35010KT
       
LFRT 212100Z AUTO 29005KT CAVOK 09/08 Q1021
LFRM 220030Z AUTO 01006KT 330V030 9999 FEW042 SCT062 OVC100 15/12 Q1020
TAF LFRM 211700Z 2118/2203 VRB05KT CAVOK 
     PROB30 
     TEMPO 2122/2124 -RA
       
LFLW 220030Z AUTO 10005KT CAVOK 08/07 Q1021
LFLC 220030Z AUTO 32003KT CAVOK 11/07 Q1020 NOSIG
TAF LFLC 212000Z 2121/2221 VRB03KT CAVOK 
     TEMPO 2214/2218 FEW050
       
LFOA 220030Z AUTO 00000KT CAVOK 10/09 Q1019
TAF LFOA 212000Z 2121/2221 VRB02KT CAVOK 
     PROB30 
     TEMPO 2201/2207 4000 BR 
     TEMPO 2207/2209 BKN005 
     PROB30 
     TEMPO 2212/2215 5000 -SHRA BKN030TCU
       
LFSB 220030Z AUTO 21002KT 9999 FEW003 06/05 Q1020 TEMPO 4000 MIFG
TAF LFSB 212300Z 2200/2224 VRB03KT CAVOK 
     TEMPO 2200/2206 4000 MIFG 
     PROB40 
     TEMPO 2203/2206 1500 BCFG 
     BECMG 2209/2211 32006KT
       
LFQB 220030Z AUTO 11001KT CAVOK 09/07 Q1019
LFBL 220030Z AUTO 30002KT CAVOK 13/09 Q1020
TAF LFBL 211700Z 2118/2218 VRB03KT CAVOK 
     PROB30 
     TEMPO 2205/2208 4000 BR BKN005 
     BECMG 2208/2210 31006KT FEW020 SCT030
       
LFBI 220030Z AUTO 31004KT CAVOK 13/10 Q1020 TEMPO BKN005
TAF LFBI 212300Z 2200/2224 35008KT 9999 BKN015 BKN020 
     TEMPO 2200/2209 BKN005 
     BECMG 2214/2216 CAVOK
       
LFBO 220030Z AUTO 22006KT CAVOK 15/12 Q1020
TAF LFBO 211700Z 2118/2224 28006KT CAVOK 
     BECMG 2200/2202 BKN008 
     PROB40 
     TEMPO 2203/2207 4000 BR BKN004 
     BECMG 2208/2210 SCT012 
     BECMG 2211/2213 CAVOK
       
LFMH 220030Z AUTO 16002KT CAVOK 08/07 Q1020
TAF LFMH 211400Z 2115/2215 VRB05KT CAVOK 
     TEMPO 2121/2209 3000 BR 
     PROB30 
     TEMPO 2203/2208 0200 FG VV///
       
LFAQ 220030Z AUTO 01003KT 9999 FEW009 BKN130 BKN240 10/09 Q1019
LFOJ 220030Z AUTO 33006KT CAVOK 10/09 Q1019
TAF LFOJ 212000Z 2121/2221 27003KT CAVOK 
     PROB30 
     TEMPO 2203/2209 4000 BR BKN007
       
LFBU 220030Z AUTO VRB02KT CAVOK 13/10 Q1020
TAF LFBU 211700Z 2118/2218 30004KT CAVOK 
     TEMPO 2204/2209 BKN006 BKN020
       
LFLY 220030Z AUTO 00000KT CAVOK 10/08 Q1020 NOSIG
TAF LFLY 212300Z 2200/2224 VRB02KT CAVOK
       
LFKJ 220030Z AUTO 04007KT CAVOK 13/10 Q1020 NOSIG
TAF LFKJ 212000Z 2121/2221 06006KT CAVOK 
     BECMG 2207/2209 24010KT
       
LFMO 220030Z AUTO VRB03KT 9999 BKN014 13/07 Q1020 TEMPO BKN005
TAF LFMO 212000Z 2121/2221 VRB02KT CAVOK 
     TEMPO 2121/2206 BKN005
       
LFRK 220030Z AUTO 27006KT CAVOK 11/10 Q1021
LFMV 220030Z AUTO 08003KT 9999 BKN015 13/09 Q1020
TAF LFMV 211400Z 2115/2215 17013KT CAVOK 
     TEMPO 2118/2209 VRB03KT BKN014
       
LFBC 220030Z AUTO 00000KT 9999 BKN021 BKN200 OVC220 14/13 Q1021 TEMPO 3000 RADZ BKN003 BKN005
TAF LFBC 212000Z 2121/2221 34005KT CAVOK 
     BECMG 2123/2124 BKN008 BKN013 
     TEMPO 2200/2208 3000 RADZ BKN003 BKN005 
     BECMG 2208/2210 NSW BKN020
       
LFPG 220030Z 00000KT CAVOK 12/09 Q1019 NOSIG
TAF LFPG 212300Z 2200/2306 34005KT CAVOK 
     BECMG 2201/2203 BKN008 
     PROB40 
     TEMPO 2203/2208 -RA BKN005 
     PROB30 
     TEMPO 2204/2206 0800 BCFG 
     BECMG 2208/2210 BKN013 
     BECMG 2210/2212 SCT025 
     PROB40 
     TEMPO 2302/2306 3000 BR 
     PROB30 
     TEMPO 2304/2306 0800 BCFG TX18/2215Z TN12/2205Z
       
LFBG 220030Z AUTO 27002KT CAVOK 13/11 Q1020
TAF LFBG 211400Z 2115/2215 31005KT CAVOK 
     BECMG 2123/2201 BKN005 BKN030 
     BECMG 2207/2209 BKN010 
     BECMG 2210/2212 BKN020 
     BECMG 2213/2215 SCT035
       
LFOC 220030Z AUTO 01005KT CAVOK 13/12 Q1020
TAF LFOC 211400Z 2115/2215 17007KT CAVOK 
     PROB40 
     TEMPO 2203/2207 4900 -RA BKN013
       
LFPT 220030Z AUTO 29007KT CAVOK 10/10 Q1019
LFMN 220030Z 33008KT CAVOK 15/09 Q1020 NOSIG
TAF LFMN 212000Z 2121/2303 34006KT CAVOK 
     BECMG 2208/2210 16006KT 
     BECMG 2216/2218 SCT015 BKN220 
     BECMG 2219/2221 34006KT BKN006
       
LFLX 220030Z AUTO 00000KT CAVOK 10/08 Q1020 TEMPO 2000 BR BKN004 BKN010
TAF LFLX 212300Z 2200/2306 24005KT CAVOK 
     TEMPO 2202/2208 2000 BR BKN004 BKN010 
     PROB30 
     TEMPO 2204/2207 0800 BCFG BKN002 
     BECMG 2208/2210 35005KT BKN015 BKN100 
     BECMG 2210/2212 BKN025 
     BECMG 2215/2217 CAVOK 
     TEMPO 2300/2306 4000 BR 
     PROB30 
     TEMPO 2302/2306 0800 FG
       
LFOV 220030Z AUTO 33006KT 9999 SCT036 BKN045 BKN100 13/11 Q1021
LFST 220030Z AUTO 00000KT CAVOK 07/06 Q1020 BECMG 3500 BR
TAF LFST 212300Z 2200/2224 VRB03KT 7000 NSC 
     BECMG 2200/2203 3500 BR 
     PROB30 2203/2207 0700 BCFG 
     BECMG 2207/2209 CAVOK
       
LFSN 220030Z AUTO 14003KT CAVOK 08/08 Q1020
LFOE 220030Z AUTO 32003KT 280V350 9999 FEW009 BKN047 OVC056 14/12 Q1020
TAF AMD LFOE 212025Z 2121/2221 30008KT CAVOK 
     TEMPO 2122/2208 BKN010 BKN025 
     PROB30 
     TEMPO 2200/2208 4000 -RADZ BKN006
       
LFTW 220030Z AUTO VRB02KT CAVOK 13/11 Q1020
TAF LFTW 211400Z 2115/2215 16007KT CAVOK 
     BECMG 2119/2121 VRB02KT BKN010
       
LFRB 220030Z AUTO 17002KT 9999 1000 R25/P2000 R07/1300D NSC 07/07 Q1022
TAF LFRB 211100Z 2112/2218 33008KT 9999 SCT018 BKN025 
     PROB30 
     TEMPO 2203/2206 2000 BR
       
LFGA 220030Z AUTO 22007KT CAVOK 10/07 Q1020
LFBH 220030Z AUTO 35010KT 9999 OVC008 15/13 Q1021 TEMPO BKN010 BKN030
TAF LFBH 212300Z 2200/2224 35010KT 9999 BKN040 
     TEMPO 2200/2204 BKN010 BKN030 
     PROB30 
     TEMPO 2200/2202 BKN005 BKN025 
     BECMG 2207/2209 CAVOK
       
LFBA 220030Z AUTO 25004KT CAVOK 15/11 Q1020
LFRJ 220030Z AUTO 20006KT CAVOK 09/08 Q1022
TAF LFRJ 212000Z 2121/2206 25004KT CAVOK
       
LFRH 220030Z AUTO 34001KT 5000 1200 R25/P2000 R07/P2000 BR NSC 07/07 Q1022 TEMPO 0800 BCFG
TAF LFRH 212300Z 2200/2224 VRB02KT 3000 BR NSC 
     TEMPO 2202/2206 0800 BCFG 
     PROB30 
     TEMPO 2204/2206 0400 FG 
     BECMG 2207/2209 CAVOK 
     BECMG 2211/2213 21010KT 
     BECMG 2222/2223 VRB02KT 3000 BR NSC
       
LFRO 220030Z AUTO 18003KT CAVOK 07/07 Q1022
TAF LFRO 211100Z 2112/2212 28010KT 9999 SCT010 BKN012 
     TEMPO 2112/2113 4000 -RA BKN006 
     BECMG 2113/2115 BKN020 
     BECMG 2122/2124 19004KT 
     PROB30 
     TEMPO 2203/2206 2000 BR
       
LFPB 220030Z AUTO VRB02KT CAVOK 11/09 Q1019 BECMG BKN008
TAF LFPB 212300Z 2200/2224 34005KT CAVOK 
     BECMG 2201/2203 BKN008 
     PROB40 
     TEMPO 2203/2208 -RA BKN005 
     PROB30 
     TEMPO 2204/2206 0800 BCFG 
     BECMG 2208/2210 BKN013 
     BECMG 2210/2212 SCT025
       
LFMC 220030Z AUTO 00000KT 9999 ////// 10/08 Q1020
LFTH 220030Z AUTO 03003KT 9999 BKN015 15/13 Q1020 TEMPO BKN013 BKN020
TAF LFTH 212000Z 2121/2221 VRB05KT CAVOK 
     TEMPO 2121/2221 BKN013 BKN020 
     TEMPO 2121/2209 32005KT 
     TEMPO 2209/2215 13010KT
       
LFAT 220030Z AUTO 29006KT 250V320 7000 DZ SCT014 BKN021 BKN028 15/13 Q1019
LFMI 220030Z AUTO 03005KT CAVOK 15/13 Q1019 TEMPO BKN013 BKN020
TAF LFMI 212000Z 2121/2221 VRB05KT CAVOK 
     TEMPO 2121/2209 BKN013 BKN020 
     TEMPO 2213/2218 22008KT
       
LFRI 220030Z AUTO 35007KT 9999 BKN020 OVC028 13/11 Q1021
TAF LFRI 211700Z 2118/2218 30005KT 9999 BKN030 
     PROB30 
     TEMPO 2203/2206 3000 BR
       
LFQQ 220030Z AUTO 00000KT CAVOK 11/09 Q1019 NOSIG
TAF LFQQ 212300Z 2200/2306 16008KT CAVOK 
     TEMPO 2203/2207 4000 DZ OVC007 
     BECMG 2207/2209 30010KT BKN013 
     BECMG 2209/2211 SCT020
       
LFSD 220030Z AUTO 00000KT CAVOK 08/06 Q1020
LFBT 220030Z AUTO 21003KT 9999 FEW009 BKN015 13/12 Q1022
TAF LFBT 211700Z 2118/2218 30010KT CAVOK 
     BECMG 2119/2121 BKN013 
     BECMG 2121/2123 VRB03KT 
     PROB30 
     TEMPO 2121/2205 BKN006 
     BECMG 2206/2208 BKN070
       
LFMD 220030Z AUTO 36004KT 300V030 CAVOK 12/09 Q1020
TAF LFMD 211400Z 2115/2215 14006KT CAVOK 
     BECMG 2119/2121 34005KT 
     PROB30 
     TEMPO 2204/2210 BKN010 
     BECMG 2210/2211 16005KT
       
LFJR 220030Z AUTO 33004KT 280V010 9999 FEW012 BKN031 OVC044 14/12 Q1020
LFCR 220030Z AUTO 14002KT CAVOK 10/08 Q1021
TAF LFCR 211700Z 2118/2218 VRB02KT CAVOK 
     BECMG 2210/2212 32006KT
       
LFRC 220030Z AUTO 31005KT 270V340 9999 BKN030 12/08 Q1021
LFCK 220030Z AUTO 11004KT 090V150 CAVOK 11/08 Q1021
TAF LFCK 211700Z 2118/2203 VRB03KT CAVOK 
     PROB40 
     TEMPO 2201/2203 4000 BR BKN003
       
LFMT 220030Z AUTO 31004KT CAVOK 13/09 Q1020 NOSIG
TAF LFMT 212000Z 2121/2221 32003KT CAVOK 
     BECMG 2209/2211 16010KT 
     BECMG 2219/2221 VRB02KT
       
LFBD 220030Z AUTO 00000KT 9999 FEW012 SCT110 BKN200 14/13 Q1021 TEMPO 4000 BR BKN003
TAF LFBD 212300Z 2200/2306 VRB02KT CAVOK 
     BECMG 2200/2201 BKN014 BKN035 
     TEMPO 2201/2210 BKN006 BKN020 
     PROB30 
     TEMPO 2202/2206 4000 BR BKN003 
     BECMG 2208/2210 36008KT 
     BECMG 2215/2217 CAVOK TX21/2215Z TN12/2306Z
       
LFJL 220030Z AUTO 11006KT 9999 NCD 10/08 Q1020 TEMPO 4000 BR
TAF LFJL 212300Z 2200/2224 11004KT CAVOK 
     PROB40 
     TEMPO 2202/2208 4000 BR
       
LFRV 220030Z AUTO 35005KT CAVOK 08/08 Q1022
LFLP 220030Z AUTO 02003KT CAVOK 07/06 Q1021
TAF LFLP 211400Z 2115/2215 26004KT CAVOK
       
LFBM 220030Z AUTO 28003KT 4800 BR NSC 13/13 Q1021 BECMG 9999 NSW OVC005
TAF LFBM 212000Z 2121/2221 27005KT CAVOK 
     BECMG 2200/2202 VRB03KT OVC005 
     TEMPO 2206/2210 4000 -DZRA 
     BECMG 2210/2212 BKN018
       
LFRZ 220030Z AUTO 30004KT 270V350 CAVOK 10/09 Q1022 NOSIG
TAF LFRZ 212300Z 2200/2224 33005KT CAVOK 
     PROB30 
     TEMPO 2203/2207 3000 BR
       
LFRS 220030Z AUTO 33003KT CAVOK 12/10 Q1021 NOSIG
TAF LFRS 212300Z 2200/2306 35005KT CAVOK 
     PROB30 
     TEMPO 2203/2207 3000 BR
       
LFSO 220030Z AUTO 15003KT CAVOK 09/07 Q1020
TAF LFSO 212000Z 2121/2221 09003KT CAVOK 
     PROB40 
     TEMPO 2203/2207 3000 BR
       
LFOH 220030Z AUTO 31009KT 9999 BKN024 BKN034 BKN092 15/11 Q1020
TAF AMD LFOH 211751Z 2117/2212 27006KT CAVOK 
     TEMPO 2117/2122 3000 DZRA BKN005 OVC013 
     BECMG 2122/2124 BKN020
       
LFPO 220030Z 31002KT CAVOK 09/08 Q1019 NOSIG
TAF LFPO 212300Z 2200/2306 34005KT CAVOK 
     BECMG 2200/2202 BKN012 
     PROB30 2202/2209 -RA BKN008 
     BECMG 2208/2210 BKN020 
     BECMG 2210/2212 SCT030 
     BECMG 2214/2216 CAVOK 
     TEMPO 2302/2306 4000 BR 
     PROB30 
     TEMPO 2303/2306 0800 BCFG
       
LFBP 220030Z AUTO 21003KT 9999 FEW016 BKN250 15/14 Q1021 TEMPO 4000 -RA BKN005
TAF LFBP 212300Z 2200/2224 VRB02KT 9999 BKN010 BKN020 
     PROB40 
     TEMPO 2201/2209 4000 -RA BKN005 
     BECMG 2209/2211 FEW020 BKN070
       
LFRD 220030Z AUTO 22004KT 9999 BKN028 08/07 Q1021 TEMPO 0800 BCFG
TAF LFRD 212300Z 2200/2224 25005KT 9999 SCT020 
     BECMG 2200/2202 VRB03KT 
     TEMPO 2202/2207 0800 BCFG
       
LFRU 212000Z AUTO 21003KT CAVOK 11/10 Q1021
LFRQ 220030Z AUTO 00000KT 8000 FEW024 08/08 Q1022
LFKB 220030Z AUTO 23004KT CAVOK 14/11 Q1020 NOSIG
TAF LFKB 212000Z 2121/2221 24005KT 9999 FEW030 
     TEMPO 2210/2212 12010KT TX24/2212Z TN13/2203Z
       
LFRL 220030Z AUTO 19004KT CAVOK 11/09 Q1022
LFML 220030Z AUTO 18002KT 9999 FEW024 SCT030 BKN037 16/13 Q1020 TEMPO BKN013 BKN020
TAF LFML 212000Z 2121/2303 VRB05KT CAVOK 
     TEMPO 2121/2209 BKN013 BKN020 
     TEMPO 2209/2214 30006KT 
     TEMPO 2214/2218 20006KT TX24/2215Z TN14/2203Z
       
LFQA 220030Z AUTO 00000KT CAVOK 06/06 Q1019
LFMP 220030Z AUTO VRB01KT CAVOK 12/09 Q1020
TAF LFMP 211400Z 2115/2215 07006KT CAVOK 
     BECMG 2116/2118 VRB02KT 
     BECMG 2213/2215 09010KT BKN010
       
LFSI 220030Z AUTO 10004KT CAVOK 09/07 Q1019
TAF LFSI 212000Z 2121/2221 11005KT CAVOK 
     PROB30 
     TEMPO 2202/2207 3000 BR
       
LFBE 220030Z AUTO 00000KT CAVOK 09/08 Q1020 NOSIG
TAF LFBE 212300Z 2200/2224 34005KT CAVOK 
     BECMG 2200/2202 SCT020 BKN040 
     PROB30 
     TEMPO 2203/2209 4000 BR BKN004 
     BECMG 2216/2218 CAVOK
       
LFKC 220030Z AUTO 20003KT CAVOK 13/11 Q1020
TAF LFKC 211400Z 2115/2215 25006KT 9999 BKN050 
     BECMG 2210/2212 35010KT TX24/2212Z TN13/2203Z
       
LFLL 220030Z 15006KT CAVOK 12/08 Q1020 NOSIG
TAF LFLL 212300Z 2200/2306 VRB03KT CAVOK 
     BECMG 2211/2213 36008KT 
     BECMG 2220/2222 VRB03KT
       
LFLS 220030Z AUTO 08007KT CAVOK 10/08 Q1020
TAF LFLS 211400Z 2115/2215 09008KT CAVOK 
     BECMG 2210/2212 36010KT
       
LFSX 220030Z AUTO 00000KT 5000 0900 R11/0900U BCFG VV/// 08/07 Q1020
TAF LFSX 212000Z 2121/2221 VRB03KT CAVOK 
     TEMPO 2202/2207 3000 BR 
     PROB40 
     TEMPO 2202/2207 0300 FG
       
LFLN 220030Z AUTO 00000KT 7000 0700 R33/P2000 BCFG NSC 08/08 Q1020
TAF LFLN 211700Z 2118/2203 VRB02KT CAVOK 
     PROB40 
     TEMPO 2121/2203 1500 BR 
     PROB30 
     TEMPO 2200/2203 0200 FG VV///
       
LFMY 220030Z AUTO 00000KT 9999 FEW028 12/10 Q1020
TAF LFMY 211400Z 2115/2215 19008KT CAVOK 
     PROB30 
     TEMPO 2121/2207 BKN014
       
LFMK 220030Z AUTO 00000KT CAVOK 09/06 Q1020
TAF LFMK 211400Z 2115/2215 08010KT CAVOK 
     BECMG 2121/2123 24010KT SCT020 
     BECMG 2201/2203 BKN010 
     BECMG 2207/2209 SCT030 
     BECMG 2213/2215 BKN010
       
LFKS 220030Z AUTO 27007KT 240V300 CAVOK 15/08 Q1020
TAF LFKS 211400Z 2115/2215 12010KT 9999 FEW040 
     PROB30 
     TEMPO 2115/2117 FEW035TCU 
     BECMG 2118/2120 28005KT 
     BECMG 2209/2211 12010KT
       
LFAQ 220030Z AUTO 01003KT 9999 FEW009 BKN130 BKN240 10/09 Q1019
LFAT 220030Z AUTO 29006KT 250V320 7000 DZ SCT014 BKN021 BKN028 15/13 Q1019
LFBA 220030Z AUTO 25004KT CAVOK 15/11 Q1020
LFBC 220030Z AUTO 00000KT 9999 BKN021 BKN200 OVC220 14/13 Q1021 TEMPO 3000 RADZ BKN003 BKN005
TAF LFBC 212000Z 2121/2221 34005KT CAVOK 
     BECMG 2123/2124 BKN008 BKN013 
     TEMPO 2200/2208 3000 RADZ BKN003 BKN005 
     BECMG 2208/2210 NSW BKN020
       
LFBD 220030Z AUTO 00000KT 9999 FEW012 SCT110 BKN200 14/13 Q1021 TEMPO 4000 BR BKN003
TAF LFBD 212300Z 2200/2306 VRB02KT CAVOK 
     BECMG 2200/2201 BKN014 BKN035 
     TEMPO 2201/2210 BKN006 BKN020 
     PROB30 
     TEMPO 2202/2206 4000 BR BKN003 
     BECMG 2208/2210 36008KT 
     BECMG 2215/2217 CAVOK TX21/2215Z TN12/2306Z
       
LFBE 220030Z AUTO 00000KT CAVOK 09/08 Q1020 NOSIG
TAF LFBE 212300Z 2200/2224 34005KT CAVOK 
     BECMG 2200/2202 SCT020 BKN040 
     PROB30 
     TEMPO 2203/2209 4000 BR BKN004 
     BECMG 2216/2218 CAVOK
       
LFBG 220030Z AUTO 27002KT CAVOK 13/11 Q1020
TAF LFBG 211400Z 2115/2215 31005KT CAVOK 
     BECMG 2123/2201 BKN005 BKN030 
     BECMG 2207/2209 BKN010 
     BECMG 2210/2212 BKN020 
     BECMG 2213/2215 SCT035
       
LFBH 220030Z AUTO 35010KT 9999 OVC008 15/13 Q1021 TEMPO BKN010 BKN030
TAF LFBH 212300Z 2200/2224 35010KT 9999 BKN040 
     TEMPO 2200/2204 BKN010 BKN030 
     PROB30 
     TEMPO 2200/2202 BKN005 BKN025 
     BECMG 2207/2209 CAVOK
       
LFBI 220030Z AUTO 31004KT CAVOK 13/10 Q1020 TEMPO BKN005
TAF LFBI 212300Z 2200/2224 35008KT 9999 BKN015 BKN020 
     TEMPO 2200/2209 BKN005 
     BECMG 2214/2216 CAVOK
       
LFBL 220030Z AUTO 30002KT CAVOK 13/09 Q1020
TAF LFBL 211700Z 2118/2218 VRB03KT CAVOK 
     PROB30 
     TEMPO 2205/2208 4000 BR BKN005 
     BECMG 2208/2210 31006KT FEW020 SCT030
       
LFBM 220030Z AUTO 28003KT 4800 BR NSC 13/13 Q1021 BECMG 9999 NSW OVC005
TAF LFBM 212000Z 2121/2221 27005KT CAVOK 
     BECMG 2200/2202 VRB03KT OVC005 
     TEMPO 2206/2210 4000 -DZRA 
     BECMG 2210/2212 BKN018
       
LFBO 220030Z AUTO 22006KT CAVOK 15/12 Q1020
TAF LFBO 211700Z 2118/2224 28006KT CAVOK 
     BECMG 2200/2202 BKN008 
     PROB40 
     TEMPO 2203/2207 4000 BR BKN004 
     BECMG 2208/2210 SCT012 
     BECMG 2211/2213 CAVOK
       
LFBP 220030Z AUTO 21003KT 9999 FEW016 BKN250 15/14 Q1021 TEMPO 4000 -RA BKN005
TAF LFBP 212300Z 2200/2224 VRB02KT 9999 BKN010 BKN020 
     PROB40 
     TEMPO 2201/2209 4000 -RA BKN005 
     BECMG 2209/2211 FEW020 BKN070
       
LFBT 220030Z AUTO 21003KT 9999 FEW009 BKN015 13/12 Q1022
TAF LFBT 211700Z 2118/2218 30010KT CAVOK 
     BECMG 2119/2121 BKN013 
     BECMG 2121/2123 VRB03KT 
     PROB30 
     TEMPO 2121/2205 BKN006 
     BECMG 2206/2208 BKN070
       
LFBU 220030Z AUTO VRB02KT CAVOK 13/10 Q1020
TAF LFBU 211700Z 2118/2218 30004KT CAVOK 
     TEMPO 2204/2209 BKN006 BKN020
       
LFBY 220030Z AUTO 00000KT 9999 // ////// 14/13 Q1021
LFBZ 220030Z AUTO 20002KT 9999 FEW028 SCT036 BKN130 16/14 Q1021 TEMPO 4000 -RADZ BKN005
TAF LFBZ 212300Z 2200/2224 VRB03KT 9999 SCT010 BKN015 
     PROB40 
     TEMPO 2200/2206 4000 -RADZ BKN005 
     BECMG 2206/2208 SCT030 BKN060 
     PROB30 
     TEMPO 2206/2211 -SHRA BKN020 
     BECMG 2212/2214 35010KT
       
LFCK 220030Z AUTO 11004KT 090V150 CAVOK 11/08 Q1021
TAF LFCK 211700Z 2118/2203 VRB03KT CAVOK 
     PROB40 
     TEMPO 2201/2203 4000 BR BKN003
       
LFCR 220030Z AUTO 14002KT CAVOK 10/08 Q1021
TAF LFCR 211700Z 2118/2218 VRB02KT CAVOK 
     BECMG 2210/2212 32006KT
       
LFGA 220030Z AUTO 22007KT CAVOK 10/07 Q1020
LFGJ 220030Z AUTO 08005KT 9000 NSC 08/08 Q1020
LFJL 220030Z AUTO 11006KT 9999 NCD 10/08 Q1020 TEMPO 4000 BR
TAF LFJL 212300Z 2200/2224 11004KT CAVOK 
     PROB40 
     TEMPO 2202/2208 4000 BR
       
LFJR 220030Z AUTO 33004KT 280V010 9999 FEW012 BKN031 OVC044 14/12 Q1020
LFKB 220030Z AUTO 23004KT CAVOK 14/11 Q1020 NOSIG
TAF LFKB 212000Z 2121/2221 24005KT 9999 FEW030 
     TEMPO 2210/2212 12010KT TX24/2212Z TN13/2203Z
       
LFKC 220030Z AUTO 20003KT CAVOK 13/11 Q1020
TAF LFKC 211400Z 2115/2215 25006KT 9999 BKN050 
     BECMG 2210/2212 35010KT TX24/2212Z TN13/2203Z
       
LFKF 220030Z AUTO 06002KT CAVOK 08/07 Q1020
TAF LFKF 211400Z 2115/2215 23010KT CAVOK 
     BECMG 2119/2121 04005KT 
     BECMG 2210/2212 10010KT
       
LFKJ 220030Z AUTO 04007KT CAVOK 13/10 Q1020 NOSIG
TAF LFKJ 212000Z 2121/2221 06006KT CAVOK 
     BECMG 2207/2209 24010KT
       
LFKS 220030Z AUTO 27007KT 240V300 CAVOK 15/08 Q1020
TAF LFKS 211400Z 2115/2215 12010KT 9999 FEW040 
     PROB30 
     TEMPO 2115/2117 FEW035TCU 
     BECMG 2118/2120 28005KT 
     BECMG 2209/2211 12010KT
       
LFLB 220030Z AUTO 00000KT CAVOK 07/07 Q1021 NOSIG
TAF LFLB 212300Z 2200/2224 VRB02KT CAVOK
       
LFLC 220030Z AUTO 32003KT CAVOK 11/07 Q1020 NOSIG
TAF LFLC 212000Z 2121/2221 VRB03KT CAVOK 
     TEMPO 2214/2218 FEW050
       
LFLL 220030Z 15006KT CAVOK 12/08 Q1020 NOSIG
TAF LFLL 212300Z 2200/2306 VRB03KT CAVOK 
     BECMG 2211/2213 36008KT 
     BECMG 2220/2222 VRB03KT
       
LFLN 220030Z AUTO 00000KT 7000 0700 R33/P2000 BCFG NSC 08/08 Q1020
TAF LFLN 211700Z 2118/2203 VRB02KT CAVOK 
     PROB40 
     TEMPO 2121/2203 1500 BR 
     PROB30 
     TEMPO 2200/2203 0200 FG VV///
       
LFLP 220030Z AUTO 02003KT CAVOK 07/06 Q1021
TAF LFLP 211400Z 2115/2215 26004KT CAVOK
       
LFLS 220030Z AUTO 08007KT CAVOK 10/08 Q1020
TAF LFLS 211400Z 2115/2215 09008KT CAVOK 
     BECMG 2210/2212 36010KT
       
LFLW 220030Z AUTO 10005KT CAVOK 08/07 Q1021
LFLX 220030Z AUTO 00000KT CAVOK 10/08 Q1020 TEMPO 2000 BR BKN004 BKN010
TAF LFLX 212300Z 2200/2306 24005KT CAVOK 
     TEMPO 2202/2208 2000 BR BKN004 BKN010 
     PROB30 
     TEMPO 2204/2207 0800 BCFG BKN002 
     BECMG 2208/2210 35005KT BKN015 BKN100 
     BECMG 2210/2212 BKN025 
     BECMG 2215/2217 CAVOK 
     TEMPO 2300/2306 4000 BR 
     PROB30 
     TEMPO 2302/2306 0800 FG
       
LFLY 220030Z AUTO 00000KT CAVOK 10/08 Q1020 NOSIG
TAF LFLY 212300Z 2200/2224 VRB02KT CAVOK
       
LFMC 220030Z AUTO 00000KT 9999 ////// 10/08 Q1020
LFMD 220030Z AUTO 36004KT 300V030 CAVOK 12/09 Q1020
TAF LFMD 211400Z 2115/2215 14006KT CAVOK 
     BECMG 2119/2121 34005KT 
     PROB30 
     TEMPO 2204/2210 BKN010 
     BECMG 2210/2211 16005KT
       
LFMH 220030Z AUTO 16002KT CAVOK 08/07 Q1020
TAF LFMH 211400Z 2115/2215 VRB05KT CAVOK 
     TEMPO 2121/2209 3000 BR 
     PROB30 
     TEMPO 2203/2208 0200 FG VV///
       
LFMI 220030Z AUTO 03005KT CAVOK 15/13 Q1019 TEMPO BKN013 BKN020
TAF LFMI 212000Z 2121/2221 VRB05KT CAVOK 
     TEMPO 2121/2209 BKN013 BKN020 
     TEMPO 2213/2218 22008KT
       
LFMK 220030Z AUTO 00000KT CAVOK 09/06 Q1020
TAF LFMK 211400Z 2115/2215 08010KT CAVOK 
     BECMG 2121/2123 24010KT SCT020 
     BECMG 2201/2203 BKN010 
     BECMG 2207/2209 SCT030 
     BECMG 2213/2215 BKN010
       
LFML 220030Z AUTO 18002KT 9999 FEW024 SCT030 BKN037 16/13 Q1020 TEMPO BKN013 BKN020
TAF LFML 212000Z 2121/2303 VRB05KT CAVOK 
     TEMPO 2121/2209 BKN013 BKN020 
     TEMPO 2209/2214 30006KT 
     TEMPO 2214/2218 20006KT TX24/2215Z TN14/2203Z
       
LFMN 220030Z 33008KT CAVOK 15/09 Q1020 NOSIG
TAF LFMN 212000Z 2121/2303 34006KT CAVOK 
     BECMG 2208/2210 16006KT 
     BECMG 2216/2218 SCT015 BKN220 
     BECMG 2219/2221 34006KT BKN006
       
LFMO 220030Z AUTO VRB03KT 9999 BKN014 13/07 Q1020 TEMPO BKN005
TAF LFMO 212000Z 2121/2221 VRB02KT CAVOK 
     TEMPO 2121/2206 BKN005
       
LFMP 220030Z AUTO VRB01KT CAVOK 12/09 Q1020
TAF LFMP 211400Z 2115/2215 07006KT CAVOK 
     BECMG 2116/2118 VRB02KT 
     BECMG 2213/2215 09010KT BKN010
       
LFMT 220030Z AUTO 31004KT CAVOK 13/09 Q1020 NOSIG
TAF LFMT 212000Z 2121/2221 32003KT CAVOK 
     BECMG 2209/2211 16010KT 
     BECMG 2219/2221 VRB02KT
       
LFMU 220030Z AUTO 00000KT CAVOK 10/08 Q1020
TAF LFMU 211400Z 2115/2215 16006KT CAVOK 
     BECMG 2117/2119 VRB02KT 
     BECMG 2201/2203 BKN010 
     BECMG 2211/2213 14010KT
       
LFMV 220030Z AUTO 08003KT 9999 BKN015 13/09 Q1020
TAF LFMV 211400Z 2115/2215 17013KT CAVOK 
     TEMPO 2118/2209 VRB03KT BKN014
       
LFMY 220030Z AUTO 00000KT 9999 FEW028 12/10 Q1020
TAF LFMY 211400Z 2115/2215 19008KT CAVOK 
     PROB30 
     TEMPO 2121/2207 BKN014
       
LFOA 220030Z AUTO 00000KT CAVOK 10/09 Q1019
TAF LFOA 212000Z 2121/2221 VRB02KT CAVOK 
     PROB30 
     TEMPO 2201/2207 4000 BR 
     TEMPO 2207/2209 BKN005 
     PROB30 
     TEMPO 2212/2215 5000 -SHRA BKN030TCU
       
LFOB 220030Z AUTO 28004KT 9999 BKN009 BKN140 OVC160 11/10 Q1019 TEMPO 1500 DZ BR
TAF LFOB 212300Z 2200/2224 21005KT CAVOK 
     TEMPO 2200/2206 1500 DZ BR BKN005 OVC013 
     BECMG 2206/2208 BKN013 
     BECMG 2208/2210 SCT020
       
LFOC 220030Z AUTO 01005KT CAVOK 13/12 Q1020
TAF LFOC 211400Z 2115/2215 17007KT CAVOK 
     PROB40 
     TEMPO 2203/2207 4900 -RA BKN013
       
LFOE 220030Z AUTO 32003KT 280V350 9999 FEW009 BKN047 OVC056 14/12 Q1020
TAF AMD LFOE 212025Z 2121/2221 30008KT CAVOK 
     TEMPO 2122/2208 BKN010 BKN025 
     PROB30 
     TEMPO 2200/2208 4000 -RADZ BKN006
       
LFOH 220030Z AUTO 31009KT 9999 BKN024 BKN034 BKN092 15/11 Q1020
TAF AMD LFOH 211751Z 2117/2212 27006KT CAVOK 
     TEMPO 2117/2122 3000 DZRA BKN005 OVC013 
     BECMG 2122/2124 BKN020
       
LFOJ 220030Z AUTO 33006KT CAVOK 10/09 Q1019
TAF LFOJ 212000Z 2121/2221 27003KT CAVOK 
     PROB30 
     TEMPO 2203/2209 4000 BR BKN007
       
LFOK 220030Z AUTO 35002KT CAVOK 10/09 Q1019 BECMG 1500 BR
TAF LFOK 212300Z 2200/2224 01005KT CAVOK 
     BECMG 2200/2203 1500 BR 
     BECMG 2206/2208 9999 NSW
       
LFOP 220030Z AUTO 32006KT 9999 BKN008 BKN015 BKN044 14/12 Q1020
TAF LFOP 211700Z 2118/2218 20009KT CAVOK 
     TEMPO 2120/2202 3000 DZRA BKN005 OVC013 
     BECMG 2202/2204 30010KT BKN020
       
LFOT 220030Z AUTO 32002KT CAVOK 12/09 Q1019 TEMPO 4000 -RA BKN005 BKN012 BKN100
TAF LFOT 212300Z 2200/2224 34005KT 9999 BKN020 
     TEMPO 2200/2205 4000 -RA BKN005 BKN012 BKN100 
     BECMG 2214/2216 CAVOK
       
LFOV 220030Z AUTO 33006KT 9999 SCT036 BKN045 BKN100 13/11 Q1021
LFPB 220030Z AUTO VRB02KT CAVOK 11/09 Q1019 BECMG BKN008
TAF LFPB 212300Z 2200/2224 34005KT CAVOK 
     BECMG 2201/2203 BKN008 
     PROB40 
     TEMPO 2203/2208 -RA BKN005 
     PROB30 
     TEMPO 2204/2206 0800 BCFG 
     BECMG 2208/2210 BKN013 
     BECMG 2210/2212 SCT025
       
LFPG 220030Z 00000KT CAVOK 12/09 Q1019 NOSIG
TAF LFPG 212300Z 2200/2306 34005KT CAVOK 
     BECMG 2201/2203 BKN008 
     PROB40 
     TEMPO 2203/2208 -RA BKN005 
     PROB30 
     TEMPO 2204/2206 0800 BCFG 
     BECMG 2208/2210 BKN013 
     BECMG 2210/2212 SCT025 
     PROB40 
     TEMPO 2302/2306 3000 BR 
     PROB30 
     TEMPO 2304/2306 0800 BCFG TX18/2215Z TN12/2205Z
       
LFPM 220030Z AUTO 09002KT CAVOK 10/09 Q1019
LFPN 220030Z AUTO 32004KT CAVOK 11/09 Q1019
TAF LFPN 211700Z 2118/2203 18005KT CAVOK 
     BECMG 2200/2202 34005KT BKN012 
     PROB30 2202/2203 -RA BKN008
       
LFPO 220030Z 31002KT CAVOK 09/08 Q1019 NOSIG
TAF LFPO 212300Z 2200/2306 34005KT CAVOK 
     BECMG 2200/2202 BKN012 
     PROB30 2202/2209 -RA BKN008 
     BECMG 2208/2210 BKN020 
     BECMG 2210/2212 SCT030 
     BECMG 2214/2216 CAVOK 
     TEMPO 2302/2306 4000 BR 
     PROB30 
     TEMPO 2303/2306 0800 BCFG
       
LFPT 220030Z AUTO 29007KT CAVOK 10/10 Q1019
LFPV 220030Z AUTO 32005KT CAVOK 12/09 Q1019 NOSIG
TAF LFPV 212000Z 2121/2221 VRB02KT CAVOK 
     TEMPO 2203/2206 -RADZ BKN005 
     BECMG 2209/2211 SCT030
       
LFQA 220030Z AUTO 00000KT CAVOK 06/06 Q1019
LFQB 220030Z AUTO 11001KT CAVOK 09/07 Q1019
LFQQ 220030Z AUTO 00000KT CAVOK 11/09 Q1019 NOSIG
TAF LFQQ 212300Z 2200/2306 16008KT CAVOK 
     TEMPO 2203/2207 4000 DZ OVC007 
     BECMG 2207/2209 30010KT BKN013 
     BECMG 2209/2211 SCT020
       
LFRB 220030Z AUTO 17002KT 9999 1000 R25/P2000 R07/1300D NSC 07/07 Q1022
TAF LFRB 211100Z 2112/2218 33008KT 9999 SCT018 BKN025 
     PROB30 
     TEMPO 2203/2206 2000 BR
       
LFRC 220030Z AUTO 31005KT 270V340 9999 BKN030 12/08 Q1021
LFRD 220030Z AUTO 22004KT 9999 BKN028 08/07 Q1021 TEMPO 0800 BCFG
TAF LFRD 212300Z 2200/2224 25005KT 9999 SCT020 
     BECMG 2200/2202 VRB03KT 
     TEMPO 2202/2207 0800 BCFG
       
LFRG 220030Z AUTO 28001KT 9999 BKN021 BKN030 BKN035 13/12 Q1020
LFRH 220030Z AUTO 34001KT 5000 1200 R25/P2000 R07/P2000 BR NSC 07/07 Q1022 TEMPO 0800 BCFG
TAF LFRH 212300Z 2200/2224 VRB02KT 3000 BR NSC 
     TEMPO 2202/2206 0800 BCFG 
     PROB30 
     TEMPO 2204/2206 0400 FG 
     BECMG 2207/2209 CAVOK 
     BECMG 2211/2213 21010KT 
     BECMG 2222/2223 VRB02KT 3000 BR NSC
       
LFRI 220030Z AUTO 35007KT 9999 BKN020 OVC028 13/11 Q1021
TAF LFRI 211700Z 2118/2218 30005KT 9999 BKN030 
     PROB30 
     TEMPO 2203/2206 3000 BR
       
LFRJ 220030Z AUTO 20006KT CAVOK 09/08 Q1022
TAF LFRJ 212000Z 2121/2206 25004KT CAVOK
       
LFRK 220030Z AUTO 27006KT CAVOK 11/10 Q1021
LFRL 220030Z AUTO 19004KT CAVOK 11/09 Q1022
LFRM 220030Z AUTO 01006KT 330V030 9999 FEW042 SCT062 OVC100 15/12 Q1020
TAF LFRM 211700Z 2118/2203 VRB05KT CAVOK 
     PROB30 
     TEMPO 2122/2124 -RA
       
LFRN 220030Z AUTO 29003KT 3700 BR NSC 08/08 Q1021 BECMG 9999 NSW
TAF LFRN 212300Z 2200/2224 VRB03KT 9999 SCT020 
     TEMPO 2203/2208 0800 BCFG 
     BECMG 2221/2224 2000 BR
       
LFRO 220030Z AUTO 18003KT CAVOK 07/07 Q1022
TAF LFRO 211100Z 2112/2212 28010KT 9999 SCT010 BKN012 
     TEMPO 2112/2113 4000 -RA BKN006 
     BECMG 2113/2115 BKN020 
     BECMG 2122/2124 19004KT 
     PROB30 
     TEMPO 2203/2206 2000 BR
       
LFRQ 220030Z AUTO 00000KT 8000 FEW024 08/08 Q1022
LFRS 220030Z AUTO 33003KT CAVOK 12/10 Q1021 NOSIG
TAF LFRS 212300Z 2200/2306 35005KT CAVOK 
     PROB30 
     TEMPO 2203/2207 3000 BR
       
LFRT 212100Z AUTO 29005KT CAVOK 09/08 Q1021
LFRU 212000Z AUTO 21003KT CAVOK 11/10 Q1021
LFRV 220030Z AUTO 35005KT CAVOK 08/08 Q1022
LFRZ 220030Z AUTO 30004KT 270V350 CAVOK 10/09 Q1022 NOSIG
TAF LFRZ 212300Z 2200/2224 33005KT CAVOK 
     PROB30 
     TEMPO 2203/2207 3000 BR
       
LFSB 220030Z AUTO 21002KT 9999 FEW003 06/05 Q1020 TEMPO 4000 MIFG
TAF LFSB 212300Z 2200/2224 VRB03KT CAVOK 
     TEMPO 2200/2206 4000 MIFG 
     PROB40 
     TEMPO 2203/2206 1500 BCFG 
     BECMG 2209/2211 32006KT
       
LFSD 220030Z AUTO 00000KT CAVOK 08/06 Q1020
LFSI 220030Z AUTO 10004KT CAVOK 09/07 Q1019
TAF LFSI 212000Z 2121/2221 11005KT CAVOK 
     PROB30 
     TEMPO 2202/2207 3000 BR
       
LFSL 220030Z AUTO 00000KT CAVOK 09/08 Q1020
LFSN 220030Z AUTO 14003KT CAVOK 08/08 Q1020
LFSO 220030Z AUTO 15003KT CAVOK 09/07 Q1020
TAF LFSO 212000Z 2121/2221 09003KT CAVOK 
     PROB40 
     TEMPO 2203/2207 3000 BR
       
LFST 220030Z AUTO 00000KT CAVOK 07/06 Q1020 BECMG 3500 BR
TAF LFST 212300Z 2200/2224 VRB03KT 7000 NSC 
     BECMG 2200/2203 3500 BR 
     PROB30 2203/2207 0700 BCFG 
     BECMG 2207/2209 CAVOK
       
LFSX 220030Z AUTO 00000KT 5000 0900 R11/0900U BCFG VV/// 08/07 Q1020
TAF LFSX 212000Z 2121/2221 VRB03KT CAVOK 
     TEMPO 2202/2207 3000 BR 
     PROB40 
     TEMPO 2202/2207 0300 FG
       
LFTH 220030Z AUTO 03003KT 9999 BKN015 15/13 Q1020 TEMPO BKN013 BKN020
TAF LFTH 212000Z 2121/2221 VRB05KT CAVOK 
     TEMPO 2121/2221 BKN013 BKN020 
     TEMPO 2121/2209 32005KT 
     TEMPO 2209/2215 13010KT
       
LFTW 220030Z AUTO VRB02KT CAVOK 13/11 Q1020
TAF LFTW 211400Z 2115/2215 16007KT CAVOK 
     BECMG 2119/2121 VRB02KT BKN010
       
LFVP 212100Z 30009KT CAVOK 16/09 Q1018 NOSIG
TAF LFVP 211700Z 2118/2203 34013KT CAVOK 
     BECMG 2121/2123 SCT030
       
LFYR 220030Z AUTO 00000KT 1100 0750 BCFG NSC 08/07 Q1019
LFRG 220030Z AUTO 28001KT 9999 BKN021 BKN030 BKN035 13/12 Q1020
LFRN 220030Z AUTO 29003KT 3700 BR NSC 08/08 Q1021 BECMG 9999 NSW
TAF LFRN 212300Z 2200/2224 VRB03KT 9999 SCT020 
     TEMPO 2203/2208 0800 BCFG 
     BECMG 2221/2224 2000 BR
       
LFKF 220030Z AUTO 06002KT CAVOK 08/07 Q1020
TAF LFKF 211400Z 2115/2215 23010KT CAVOK 
     BECMG 2119/2121 04005KT 
     BECMG 2210/2212 10010KT
       
LFGJ 220030Z AUTO 08005KT 9000 NSC 08/08 Q1020
LFOB 220030Z AUTO 28004KT 9999 BKN009 BKN140 OVC160 11/10 Q1019 TEMPO 1500 DZ BR
TAF LFOB 212300Z 2200/2224 21005KT CAVOK 
     TEMPO 2200/2206 1500 DZ BR BKN005 OVC013 
     BECMG 2206/2208 BKN013 
     BECMG 2208/2210 SCT020
       
LFPN 220030Z AUTO 32004KT CAVOK 11/09 Q1019
TAF LFPN 211700Z 2118/2203 18005KT CAVOK 
     BECMG 2200/2202 34005KT BKN012 
     PROB30 2202/2203 -RA BKN008
       
LFOT 220030Z AUTO 32002KT CAVOK 12/09 Q1019 TEMPO 4000 -RA BKN005 BKN012 BKN100
TAF LFOT 212300Z 2200/2224 34005KT 9999 BKN020 
     TEMPO 2200/2205 4000 -RA BKN005 BKN012 BKN100 
     BECMG 2214/2216 CAVOK
       
LFOP 220030Z AUTO 32006KT 9999 BKN008 BKN015 BKN044 14/12 Q1020
TAF LFOP 211700Z 2118/2218 20009KT CAVOK 
     TEMPO 2120/2202 3000 DZRA BKN005 OVC013 
     BECMG 2202/2204 30010KT BKN020
       
LFOK 220030Z AUTO 35002KT CAVOK 10/09 Q1019 BECMG 1500 BR
TAF LFOK 212300Z 2200/2224 01005KT CAVOK 
     BECMG 2200/2203 1500 BR 
     BECMG 2206/2208 9999 NSW
       
LFPV 220030Z AUTO 32005KT CAVOK 12/09 Q1019 NOSIG
TAF LFPV 212000Z 2121/2221 VRB02KT CAVOK 
     TEMPO 2203/2206 -RADZ BKN005 
     BECMG 2209/2211 SCT030
       
LFMU 220030Z AUTO 00000KT CAVOK 10/08 Q1020
TAF LFMU 211400Z 2115/2215 16006KT CAVOK 
     BECMG 2117/2119 VRB02KT 
     BECMG 2201/2203 BKN010 
     BECMG 2211/2213 14010KT
       
LFPM 220030Z AUTO 09002KT CAVOK 10/09 Q1019